Content
SEND FEEDBACK

Daily
Averages
Monthly
Summary
United States of America

VALLEY PARK, MISSOURI


Home > North America > United States > Missouri
Elevation: 456 feet     Latitude: 38 33N     Longitude: 090 30W

WEATHER
 
SELECT A DAY
Number of Records: 203,416;   Date Range: 1/1/95 - 7/26/14
 
SHARE

PRINT THIS DATA

[ ← Previous Day ]
WEATHER ALMANAC - APRIL 1, 2013
[ Next Day → ]
[ °C ]   °F
Weather ElementAverageHighLow
Temperature43 °F48.9 °F (2:51 pm)37 °F (11:51 pm)
Dewpoint22.2 °F30.9 °F (1:51 am)16 °F (5:51 pm)
Humidity44.9 %60 % (7:51 am)29 % (3:51 pm)
Barometer30.18 in30.27 in (11:51 pm)30.00 in (1:51 am)
Wind Speed9.6 mph15 mph (10:51 am)
Wind Gust23 mph (4:51 pm)
Weather ElementAverage
Visibility10 mi
Wind DirectionWNW (294.3 °)

Weather ElementTotal
Precipitation---
Heating Degree Days22.1 (Base 65)
Averaged from 23 records on April 1, 2013
WEATHER CONDITIONS BREAKOUT
WIND DIRECTION BREAKOUT
WEATHER BY HOUR - APRIL 1, 2013
[ °C ]   °F
Local TimeTemperatureDewpointHumidityBarometerVisibilityWind DirectionWind SpeedGust SpeedPrecipitationEventsConditions
1:51 AM45.0 °F30.9 °F58 %30.00 in10.0 miNorth (10°)11.5 mphScattered Clouds
2:51 AM43.0 °F28.9 °F58 %30.02 in10.0 miNorth (10°)12.7 mphMostly Cloudy
3:51 AM42.1 °F27.0 °F55 %30.03 in10.0 miNorth (360°)10.4 mph20.7 mph0.00 inOvercast
4:51 AM41.0 °F27.0 °F57 %30.06 in10.0 miNorth (360°)10.4 mphMostly Cloudy
5:51 AM41.0 °F27.0 °F57 %30.10 in10.0 miNNW (340°)8.1 mph0.00 inMostly Cloudy
6:51 AM39.0 °F23.0 °F53 %30.13 in10.0 miNorth (350°)10.4 mphMostly Cloudy
7:51 AM37.9 °F25.0 °F60 %30.17 in10.0 miNorth (10°)10.4 mphOvercast
8:51 AM39.0 °F24.1 °F55 %30.19 in10.0 miNorth (360°)11.5 mphScattered Clouds
9:51 AM41.0 °F25.0 °F53 %30.21 in10.0 miNW (310°)12.7 mphMostly Cloudy
10:51 AM44.1 °F21.9 °F42 %30.21 in10.0 miNNW (330°)15.0 mph19.6 mphScattered Clouds
11:51 AM45.0 °F23.0 °F42 %30.22 in10.0 miNNW (340°)8.1 mph16.1 mphScattered Clouds
12:51 PM46.0 °F21.9 °F39 %30.22 in10.0 miNNW (340°)8.1 mph16.1 mphScattered Clouds
1:51 PM48.0 °F23.0 °F37 %30.21 in10.0 miNW (310°)10.4 mph17.3 mphScattered Clouds
2:51 PM48.9 °F19.9 °F32 %30.21 in10.0 miNW (310°)12.7 mph19.6 mphScattered Clouds
3:51 PM48.9 °F18.0 °F29 %30.21 in10.0 miNW (320°)12.7 mph18.4 mphScattered Clouds
4:51 PM48.0 °F18.0 °F30 %30.22 in10.0 miWNW (300°)9.2 mph23.0 mphScattered Clouds
5:51 PM46.9 °F16.0 °F29 %30.21 in10.0 miNNW (340°)13.8 mphScattered Clouds
6:51 PM45.0 °F17.1 °F33 %30.21 in10.0 miNorth (360°)6.9 mphScattered Clouds
7:51 PM42.1 °F19.0 °F40 %30.22 in10.0 miNNW (340°)6.9 mphScattered Clouds
8:51 PM41.0 °F18.0 °F40 %30.23 in10.0 miNNW (340°)6.9 mphPartly Cloudy
9:51 PM39.9 °F19.0 °F43 %30.24 in10.0 miNNW (340°)3.5 mphClear
10:51 PM39.9 °F19.0 °F43 %30.25 in10.0 miNNW (340°)3.5 mphClear
11:51 PM37.0 °F19.0 °F48 %30.27 in10.0 miNorth (350°)5.8 mphClear
Hourly data recorded from KSTL, located miles away from Valley Park, Missouri







STORIES FROM OUR PARTNERS